Date String (YYYY-MM-DD hh:mm:ss) UTC,Instrument flags,Ambient pressure (hPa),Sample flow (lpm),Bypass flow (lpm),Sample temperature (°C),Ambient temperature (°C),ASC tube jacket temperature (°C),LED temperature (°C),Box temperature (°C),Sample RH (%),Span deviation,Mass concentration (μg/m³),Mass concentration (μg/m³),Mass concentration (μg/m³)
DateTimeUTC,F1_M11,P_M11,Q1_M11,Q2_M11,T1_M11,T2_M11,T3_M11,T4_M11,T5_M11,U1_M11,ZSPAN_M11,X0_M11,X2_M11,X1_M11
2022-12-02 08:00:00,,0809.5,4.99,0.00,22.0,20.4,00.0,31.2,23.7,12.1,0000.0,0004.32,0000.97,0000.44
2022-12-02 08:01:00,,0809.3,5.00,0.00,22.0,20.4,00.0,31.2,23.7,12.1,0000.0,0004.49,0000.95,0000.44
2022-12-02 08:02:00,,0809.5,5.00,0.00,22.0,20.3,00.0,31.2,23.7,11.9,0000.0,0005.15,0000.94,0000.45
2022-12-02 08:03:00,,0809.6,5.00,0.00,22.0,20.3,00.0,31.2,23.7,11.8,0000.0,0005.13,0000.89,0000.44
2022-12-02 08:04:00,,0809.6,5.00,0.00,22.0,20.4,00.0,31.1,23.7,12.0,0000.0,0005.08,0000.87,0000.44
2022-12-02 08:05:00,,0809.7,5.00,0.00,22.0,20.4,00.0,31.1,23.7,12.1,0000.0,0004.56,0000.84,0000.44
2022-12-02 08:06:00,,0809.6,5.01,0.00,22.0,20.3,00.0,31.1,23.7,12.4,0000.0,0004.53,0000.83,0000.44
2022-12-02 08:07:00,,0809.4,5.00,0.00,22.0,20.3,00.0,31.1,23.7,12.2,0000.0,0004.86,0000.82,0000.44
2022-12-02 08:08:00,,0809.4,5.00,0.00,22.0,20.3,00.0,31.1,23.7,11.9,0000.0,0006.19,0000.77,0000.43
2022-12-02 08:09:00,,0809.4,4.99,0.00,22.0,20.3,00.0,31.1,23.7,11.9,0000.0,0006.19,0000.76,0000.43
2022-12-02 08:10:00,,0809.5,5.00,0.00,21.9,20.3,00.0,31.1,23.7,12.1,0000.0,0005.63,0000.78,0000.44
2022-12-02 08:11:00,,0809.4,5.00,0.00,21.9,20.3,00.0,31.0,23.6,12.3,0000.0,0004.37,0000.75,0000.44
2022-12-02 08:12:00,,0809.5,5.01,0.00,21.9,20.3,00.0,31.0,23.6,12.4,0000.0,0004.25,0000.74,0000.44
2022-12-02 08:13:00,,0809.5,5.00,0.00,21.9,20.3,00.0,31.0,23.6,12.7,0000.0,0004.63,0000.79,0000.43
2022-12-02 08:14:00,,0809.4,5.00,0.00,21.9,20.2,00.0,31.0,23.5,12.7,0000.0,0004.85,0000.85,0000.42
2022-12-02 08:15:00,,0809.4,5.00,0.00,21.9,20.2,00.0,31.0,23.6,12.0,0000.0,0004.78,0000.83,0000.43
2022-12-02 08:16:00,,0809.3,5.01,0.00,21.9,20.2,00.0,31.0,23.5,12.2,0000.0,0004.70,0000.80,0000.43
2022-12-02 08:17:00,,0809.4,4.99,0.00,21.8,20.2,00.0,31.0,23.6,12.2,0000.0,0004.66,0000.86,0000.45
2022-12-02 08:18:00,,0809.5,4.99,0.00,21.8,20.2,00.0,30.9,23.5,12.4,0000.0,0004.53,0000.88,0000.46
2022-12-02 08:19:00,,0809.5,5.01,0.00,21.8,20.2,00.0,30.9,23.5,12.8,0000.0,0003.19,0000.91,0000.46
2022-12-02 08:20:00,,0809.3,5.00,0.00,21.8,20.2,00.0,30.9,23.5,12.7,0000.0,0003.21,0000.91,0000.45
2022-12-02 08:21:00,,0809.4,4.99,0.00,21.8,20.1,00.0,30.9,23.5,12.3,0000.0,0003.16,0000.89,0000.45
2022-12-02 08:22:00,,0809.4,5.00,0.00,21.8,20.1,00.0,30.9,23.5,12.2,0000.0,0003.21,0000.89,0000.44
2022-12-02 08:23:00,,0809.5,4.99,0.00,21.8,20.1,00.0,30.9,23.5,12.1,0000.0,0003.21,0000.89,0000.44
2022-12-02 08:24:00,,0809.4,5.01,0.00,21.8,20.1,00.0,30.9,23.4,12.3,0000.0,0002.22,0000.90,0000.44
2022-12-02 08:25:00,,0809.4,4.99,0.00,21.7,20.1,00.0,30.9,23.4,12.3,0000.0,0013.32,0001.05,0000.46
2022-12-02 08:26:00,,0809.4,5.00,0.00,21.7,20.1,00.0,30.9,23.4,12.4,0000.0,0016.34,0001.11,0000.46
2022-12-02 08:27:00,,0809.4,5.00,0.00,21.7,20.1,00.0,30.8,23.4,12.4,0000.0,0016.40,0001.15,0000.46
2022-12-02 08:28:00,,0809.3,4.99,0.00,21.7,20.1,00.0,30.8,23.4,12.3,0000.0,0016.37,0001.11,0000.45
2022-12-02 08:29:00,,0809.3,5.01,0.00,21.7,20.1,00.0,30.8,23.4,12.1,0000.0,0016.39,0001.10,0000.45
2022-12-02 08:30:00,,0809.2,5.01,0.00,21.7,20.1,00.0,30.8,23.4,12.3,0000.0,0016.33,0001.09,0000.45
2022-12-02 08:31:00,,0809.3,4.97,0.00,21.7,20.0,00.0,30.8,23.4,12.3,0000.0,0016.38,0001.14,0000.45
2022-12-02 08:32:00,,0809.4,5.01,0.00,21.7,20.0,00.0,30.8,23.4,12.1,0000.0,0016.38,0001.15,0000.46
2022-12-02 08:33:00,,0809.4,5.01,0.00,21.6,20.0,00.0,30.8,23.3,12.3,0000.0,0016.35,0001.14,0000.46
2022-12-02 08:34:00,,0809.4,5.00,0.00,21.6,20.0,00.0,30.8,23.3,12.3,0000.0,0016.35,0001.17,0000.46
2022-12-02 08:35:00,,0809.4,5.00,0.00,21.7,20.1,00.0,30.7,23.4,12.3,0000.0,0016.40,0001.18,0000.46
2022-12-02 08:36:00,,0809.6,4.99,0.00,21.7,21.0,00.0,30.7,23.7,12.5,0000.0,0007.28,0001.01,0000.44
2022-12-02 08:37:00,,0809.6,5.00,0.00,21.9,22.0,00.0,30.7,24.0,12.4,0000.0,0002.49,0000.97,0000.44
2022-12-02 08:38:00,,0809.7,5.02,0.00,22.0,22.0,00.0,30.7,24.1,12.2,0000.0,0002.79,0000.98,0000.46
2022-12-02 08:39:00,,0809.7,4.98,0.00,22.0,21.8,00.0,30.8,24.1,13.0,0000.0,0003.85,0000.99,0000.45
2022-12-02 08:40:00,,0809.6,5.00,0.00,22.1,21.5,00.0,30.8,24.1,12.7,0000.0,0004.09,0000.98,0000.45
2022-12-02 08:41:00,,0809.5,5.00,0.00,22.1,21.3,00.0,30.9,24.0,12.3,0000.0,0003.89,0000.95,0000.44
2022-12-02 08:42:00,,0809.7,4.99,0.00,22.1,21.1,00.0,30.9,24.0,12.2,0000.0,0003.67,0000.88,0000.44
2022-12-02 08:43:00,,0809.7,5.00,0.00,22.1,20.9,00.0,30.9,23.9,12.5,0000.0,0003.67,0000.88,0000.44
2022-12-02 08:44:00,,0809.7,5.02,0.00,22.1,20.8,00.0,30.9,23.9,12.6,0000.0,0003.68,0000.88,0000.44
2022-12-02 08:45:00,,0809.7,5.01,0.00,22.0,20.7,00.0,30.9,23.8,12.2,0000.0,0003.67,0000.85,0000.45
2022-12-02 08:46:00,,0809.7,5.00,0.00,22.0,20.6,00.0,30.9,23.8,12.1,0000.0,0004.14,0000.79,0000.45
2022-12-02 08:47:00,,0809.7,4.99,0.00,22.0,20.6,00.0,30.9,23.8,12.2,0000.0,0004.12,0000.80,0000.45
2022-12-02 08:48:00,,0809.6,4.99,0.00,22.0,20.5,00.0,30.9,23.7,12.4,0000.0,0004.49,0000.76,0000.44
2022-12-02 08:49:00,,0809.5,5.00,0.00,22.0,20.5,00.0,30.9,23.7,12.4,0000.0,0005.08,0000.76,0000.43
2022-12-02 08:50:00,,0809.5,5.01,0.00,22.0,20.4,00.0,30.9,23.7,12.2,0000.0,0004.66,0000.74,0000.43
2022-12-02 08:51:00,,0809.5,5.00,0.00,21.9,20.4,00.0,30.9,23.7,12.0,0000.0,0005.11,0000.73,0000.43
2022-12-02 08:52:00,,0809.6,5.01,0.00,21.9,20.4,00.0,31.0,23.7,12.0,0000.0,0005.31,0000.78,0000.43
2022-12-02 08:53:00,,0809.8,5.00,0.00,21.9,20.3,00.0,30.9,23.6,12.9,0000.0,0005.44,0000.80,0000.44
2022-12-02 08:54:00,,0809.7,4.99,0.00,21.9,20.3,00.0,30.9,23.6,12.8,0000.0,0005.51,0000.82,0000.43
2022-12-02 08:55:00,,0809.6,4.99,0.00,21.9,20.3,00.0,30.9,23.6,12.6,0000.0,0005.61,0000.86,0000.42
2022-12-02 08:56:00,,0809.5,5.01,0.00,21.9,20.3,00.0,30.9,23.6,12.3,0000.0,0005.67,0000.89,0000.42
2022-12-02 08:57:00,,0809.5,5.00,0.00,21.9,20.3,00.0,30.9,23.6,12.2,0000.0,0005.24,0000.91,0000.43
2022-12-02 08:58:00,,0809.6,5.00,0.00,21.8,20.3,00.0,30.9,23.5,12.0,0000.0,0005.82,0000.90,0000.43
2022-12-02 08:59:00,,0809.8,5.00,0.00,21.8,20.2,00.0,30.9,23.5,12.3,0000.0,0005.09,0000.90,0000.43
